GW2235 Weather Reports


time (UTC)temp
F
wind
direction
speed
knots
gust
knots
rain 1hr
in
rain 24hr
in
rain mn
in
humidity
%
barometer
mb
20260504214502 70 152 2.6 7.0 0.00 0.00 0.00 33 1008.5
20260504213002 70 178 3.5 10.4 0.00 0.00 0.00 31 1008.6
20260504211501 70 263 3.5 13.9 0.00 0.00 0.00 32 1008.6
20260504210003 70 194 3.5 9.6 0.00 0.00 0.00 32 1008.9
20260504204500 69 209 4.3 10.4 0.00 0.00 0.00 30 1008.9
20260504203001 69 163 4.3 12.2 0.00 0.00 0.00 31 1009.2
20260504201503 68 205 6.1 12.2 0.00 0.00 0.00 31 1009.4
20260504200004 68 214 5.2 13.0 0.00 0.00 0.00 32 1009.4
20260504194502 68 170 4.3 12.2 0.00 0.00 0.00 32 1009.7
20260504193001 68 180 4.3 13.9 0.00 0.00 0.00 33 1009.8
20260504191501 67 176 7.0 14.8 0.00 0.00 0.00 34 1009.8
20260504190004 66 203 5.2 17.4 0.00 0.00 0.00 35 1010.0
20260504184459 65 193 6.1 14.8 0.00 0.00 0.00 35 1010.3
20260504183002 66 193 3.5 10.4 0.00 0.00 0.00 37 1010.4
20260504181501 66 79 5.2 20.0 0.00 0.00 0.00 34 1010.3
20260504180004 65 220 6.1 16.5 0.00 0.00 0.00 36 1010.4
20260504174459 66 209 4.3 17.4 0.00 0.00 0.00 33 1010.5
20260504173000 64 212 6.1 14.8 0.00 0.00 0.00 36 1010.6
20260504171459 65 167 6.1 13.9 0.00 0.00 0.00 37 1010.8
20260504081502 32 198 0.0 0.0 0.00 0.00 0.00 85 1013.7
20260504044457 36 198 0.0 0.0 0.00 0.00 0.00 77 1013.6
20260504043005 36 198 0.0 0.0 0.00 0.00 0.00 76 1013.5
20260504040006 37 198 0.0 0.0 0.00 0.00 0.00 74 1013.2
20260504034501 37 198 0.0 1.7 0.00 0.00 0.00 74 1013.1
20260504033005 37 198 0.0 0.0 0.00 0.00 0.00 72 1013.0
20260504031504 38 198 0.0 0.0 0.00 0.00 0.00 70 1013.0
20260504030004 38 198 0.0 0.0 0.00 0.00 0.00 69 1013.1
20260504024503 39 198 0.0 0.0 0.00 0.00 0.00 67 1013.1
20260504023004 40 198 0.0 0.0 0.00 0.00 0.00 66 1013.1
20260504021505 40 198 0.0 0.0 0.00 0.00 0.00 64 1013.1
20260504020006 41 198 0.0 0.0 0.00 0.00 0.00 62 1013.1
20260504014504 42 198 0.0 0.0 0.00 0.00 0.00 62 1013.0
20260504013005 43 198 0.0 0.0 0.00 0.00 0.00 61 1012.9
20260504011502 45 198 0.0 0.0 0.00 0.00 0.00 59 1012.6
20260504010005 46 198 0.0 0.0 0.00 0.00 0.00 55 1012.6
20260504003005 51 198 0.0 0.0 0.00 0.00 0.00 41 1012.4
20260503234502 53 248 1.7 3.5 0.00 0.00 0.00 35 1011.9
20260503233002 54 232 3.5 7.8 0.00 0.00 0.00 36 1011.6
20260503231500 54 163 4.3 9.6 0.00 0.00 0.00 34 1011.6
20260503230004 55 213 4.3 13.0 0.00 0.00 0.00 33 1011.6
20260503224501 55 213 4.3 13.0 0.00 0.00 0.00 34 1011.5
20260503223004 55 193 5.2 12.2 0.00 0.00 0.00 36 1011.6
20260503221500 55 258 4.3 13.0 0.00 0.00 0.00 34 1011.5
20260503220005 55 291 4.3 12.2 0.00 0.00 0.00 32 1011.4